CW8097 Weather Reports


time (UTC)temp
C
wind
direction
speed
KPH
gust
KPH
rain 1hr
cm
rain 24hr
cm
rain mn
cm
humidity
%
barometer
mb
20260906162703 22 70 11.3 19.3 0.00 0.00 0.00 90 1018.7
20260906160703 22 77 8.0 19.3 0.00 0.00 0.00 91 1018.8
20260906155203 21 80 9.7 19.3 0.00 0.00 0.00 91 1018.7
20260906154703 22 77 8.0 12.9 0.00 0.00 0.00 91 1018.8
20260906154203 22 79 3.2 14.5 0.00 0.00 0.00 91 1018.9
20260906153703 22 78 4.8 12.9 0.00 0.00 0.00 91 1018.8
20260906145703 22 79 4.8 12.9 0.00 0.00 0.00 92 1018.7
20260906144203 21 79 3.2 8.0 0.00 0.00 0.00 93 1018.5
20260906142203 21 86 4.8 8.0 0.00 0.00 0.00 93 1018.6
20260906135704 21 82 4.8 9.7 0.00 0.00 0.00 93 1018.6
20260906135203 21 77 4.8 11.3 0.00 0.00 0.00 93 1018.6
20260906131703 21 117 3.2 9.7 0.00 0.00 0.00 94 1018.3
20260906130703 21 84 3.2 9.7 0.00 0.00 0.00 94 1018.2
20260906130203 21 78 6.4 14.5 0.00 0.00 0.00 94 1018.1
20260906122203 20 73 3.2 4.8 0.00 0.00 0.00 94 1017.6
20260906121203 20 74 4.8 8.0 0.00 0.00 0.00 94 1017.3
20260906120203 20 74 4.8 8.0 0.00 0.00 0.00 94 1017.3
20260906114703 20 85 1.6 4.8 0.00 0.00 0.00 94 1017.2
20260906114203 20 78 3.2 4.8 0.00 0.00 0.00 94 1017.2
20260906113703 20 69 3.2 4.8 0.00 0.00 0.00 94 1017.2
20260906113204 20 83 3.2 4.8 0.00 0.00 0.00 94 1017.2
20260906112703 20 80 1.6 4.8 0.00 0.00 0.00 94 1017.2
20260906112203 20 72 3.2 4.8 0.00 0.00 0.00 94 1017.2
20260906111203 20 88 0.0 0.0 0.00 0.00 0.00 94 1017.0
20260906110703 20 112 0.0 3.2 0.00 0.00 0.00 94 1016.9
20260906105203 20 76 4.8 11.3 0.00 0.00 0.00 94 1016.9
20260906104703 20 71 4.8 8.0 0.00 0.00 0.00 94 1016.9
20260906104203 20 72 4.8 8.0 0.00 0.00 0.00 94 1016.9
20260906103704 20 72 6.4 11.3 0.00 0.00 0.00 94 1017.0
20260906103204 20 76 8.0 11.3 0.00 0.00 0.00 94 1017.0
20260906102703 20 70 4.8 8.0 0.00 0.00 0.00 93 1017.1
20260906101703 20 64 6.4 8.0 0.00 0.00 0.00 94 1017.0
20260906101203 20 71 4.8 4.8 0.00 0.00 0.00 93 1017.0
20260906100203 20 64 4.8 8.0 0.00 0.00 0.00 93 1017.0
20260906095703 20 64 4.8 4.8 0.00 0.00 0.00 93 1017.2
20260906092203 20 57 3.2 3.2 0.00 0.00 0.00 93 1016.8
20260906091703 20 57 3.2 3.2 0.00 0.00 0.00 92 1016.8
20260906090703 20 57 3.2 4.8 0.00 0.00 0.00 92 1016.7
20260906090203 20 62 3.2 4.8 0.00 0.00 0.00 93 1016.7
20260906084703 20 67 0.0 0.0 0.00 0.00 0.00 92 1016.3
20260906083704 20 67 1.6 1.6 0.00 0.00 0.00 92 1016.2
20260906083203 21 67 1.6 4.8 0.00 0.00 0.00 92 1016.3
20260906082203 21 64 4.8 4.8 0.00 0.00 0.00 91 1016.2
20260906081204 21 69 3.2 4.8 0.00 0.00 0.00 91 1016.2
20260906075704 21 103 1.6 3.2 0.00 0.00 0.00 91 1016.2
20260906075203 21 78 1.6 4.8 0.00 0.00 0.00 91 1016.2
20260906074703 21 75 3.2 4.8 0.00 0.00 0.00 91 1016.1
20260906074204 21 75 3.2 4.8 0.00 0.00 0.00 91 1016.0
20260906073703 21 71 4.8 8.0 0.00 0.00 0.00 91 1016.1
20260906072203 21 72 3.2 4.8 0.00 0.00 0.00 90 1016.2
20260906071703 21 74 3.2 8.0 0.00 0.00 0.00 90 1016.2
20260906071203 21 69 4.8 8.0 0.00 0.00 0.00 90 1016.2
20260906065703 22 72 3.2 4.8 0.00 0.00 0.00 90 1016.3
20260906063204 22 73 3.2 8.0 0.00 0.00 0.00 90 1016.4
20260906062203 22 92 4.8 12.9 0.00 0.00 0.00 90 1016.3
20260906061203 22 74 8.0 14.5 0.00 0.00 0.00 91 1016.2
20260906060703 22 73 8.0 11.3 0.00 0.00 0.00 91 1016.2
20260906055204 22 74 8.0 12.9 0.00 0.00 0.00 92 1016.3
20260906053204 22 75 8.0 12.9 0.00 0.00 0.00 92 1016.2
20260906052203 22 69 6.4 8.0 0.00 0.00 0.00 92 1016.3
20260906051704 22 72 4.8 8.0 0.00 0.00 0.00 92 1016.3
20260906051203 22 69 4.8 8.0 0.00 0.00 0.00 92 1016.3
20260906045204 22 72 8.0 12.9 0.00 0.00 0.00 91 1016.3
20260906043203 23 75 8.0 12.9 0.00 0.00 0.00 91 1016.1
20260906042203 23 69 8.0 11.3 0.00 0.00 0.00 90 1016.2
20260906041703 23 65 8.0 9.7 0.00 0.00 0.00 90 1016.1
20260906041203 23 69 8.0 8.0 0.00 0.00 0.00 90 1016.1
20260906040203 23 69 4.8 8.0 0.00 0.00 0.00 89 1015.8
20260906033203 24 69 3.2 9.7 0.00 0.00 0.00 90 1015.8
20260906032704 24 71 4.8 8.0 0.00 0.00 0.00 90 1015.7
20260906032203 24 83 3.2 8.0 0.00 0.00 0.00 90 1015.7
20260906030704 24 76 8.0 12.9 0.00 0.00 0.00 90 1015.5
20260906030203 24 68 8.0 12.9 0.00 0.00 0.00 90 1015.6
20260906024703 25 62 9.7 16.1 0.00 0.00 0.00 89 1015.6
20260906023704 25 65 9.7 16.1 0.00 0.00 0.00 89 1015.4
20260906023203 25 67 11.3 14.5 0.00 0.00 0.00 89 1015.4
20260906021703 25 61 9.7 14.5 0.00 0.00 0.00 88 1015.3
20260906015703 26 57 4.8 9.7 0.00 0.00 0.00 88 1014.8
20260906014703 26 55 8.0 12.9 0.00 0.00 0.00 87 1014.5
20260906013204 27 58 8.0 14.5 0.00 0.00 0.00 86 1014.2
20260906010703 27 41 3.2 4.8 0.00 0.00 0.00 86 1014.4
20260906004703 27 53 4.8 8.0 0.00 0.00 0.00 85 1014.1
20260906001203 29 69 3.2 8.0 0.00 0.00 0.00 79 1013.8
20260906000704 29 72 4.8 4.8 0.00 0.00 0.00 78 1013.8
20260905235703 30 55 4.8 8.0 0.00 0.00 0.00 76 1013.8
20260905234703 30 79 8.0 16.1 0.00 0.00 0.00 75 1013.7
20260905233203 30 59 8.0 12.9 0.00 0.00 0.00 75 1013.8
20260905232203 30 65 8.0 14.5 0.00 0.00 0.00 75 1013.9
20260905230704 30 64 9.7 14.5 0.00 0.00 0.00 73 1013.9
20260905230204 31 57 8.0 12.9 0.00 0.00 0.00 73 1013.9
20260905225704 31 56 8.0 9.7 0.00 0.00 0.00 73 1013.9
20260905225203 31 61 6.4 12.9 0.00 0.00 0.00 72 1013.9
20260905224203 31 80 9.7 19.3 0.00 0.00 0.00 72 1013.6
20260905222703 31 79 9.7 19.3 0.00 0.00 0.00 70 1013.3
20260905220203 31 77 12.9 19.3 0.00 0.00 0.00 70 1013.3
20260905215203 31 73 11.3 19.3 0.00 0.00 0.00 69 1013.3
20260905212203 31 73 11.3 19.3 0.00 0.00 0.00 71 1013.4
20260905211703 31 57 14.5 20.9 0.00 0.00 0.00 70 1013.4
20260905211204 31 66 11.3 19.3 0.00 0.00 0.00 69 1013.4
20260905210203 31 79 14.5 22.5 0.00 0.00 0.00 69 1013.5
20260905205703 31 60 12.9 19.3 0.00 0.00 0.00 70 1013.7
20260905205203 31 38 8.0 19.3 0.00 0.00 0.00 73 1013.6
20260905204703 31 51 14.5 20.9 0.00 0.00 0.00 71 1013.6
20260905203704 31 57 12.9 19.3 0.00 0.00 0.00 70 1013.7
20260905203203 31 55 9.7 16.1 0.00 0.00 0.00 72 1013.8
20260905202204 31 55 14.5 20.9 0.00 0.00 0.00 71 1013.9
20260905201703 31 72 14.5 22.5 0.00 0.00 0.00 72 1014.0
20260905201204 31 74 14.5 19.3 0.00 0.00 0.00 71 1014.1
20260905195704 31 47 9.7 19.3 0.00 0.00 0.00 75 1014.3
20260905195203 31 43 9.7 16.1 0.00 0.00 0.00 75 1014.5
20260905193204 30 59 8.0 16.1 0.00 0.00 0.00 76 1014.6
20260905192204 30 74 12.9 16.1 0.00 0.00 0.00 77 1014.6
20260905191704 30 50 12.9 19.3 0.00 0.00 0.00 79 1014.7
20260905185703 29 47 9.7 14.5 0.00 0.00 0.00 81 1015.0
20260905185203 29 38 6.4 14.5 0.00 0.00 0.00 81 1015.1
20260905184703 29 45 8.0 14.5 0.00 0.00 0.00 81 1015.2
20260905183703 29 37 9.7 14.5 0.00 0.00 0.00 80 1015.3
20260905183203 29 56 8.0 11.3 0.00 0.00 0.00 80 1015.3
20260905182703 29 44 4.8 9.7 0.00 0.00 0.00 80 1015.3
20260905182203 29 28 4.8 8.0 0.00 0.00 0.00 81 1015.3
20260905181703 29 42 8.0 16.1 0.00 0.00 0.00 80 1015.3
20260905180704 29 50 8.0 12.9 0.00 0.00 0.00 80 1015.3
20260905175704 29 41 8.0 11.3 0.00 0.00 0.00 80 1015.5
20260905175204 29 38 4.8 8.0 0.00 0.00 0.00 81 1015.4
20260905173703 29 30 8.0 11.3 0.00 0.00 0.00 80 1015.1
20260905173203 29 38 8.0 12.9 0.00 0.00 0.00 80 1015.1
20260905171704 29 54 9.7 14.5 0.00 0.00 0.00 80 1015.2
20260905171204 29 48 8.0 12.9 0.00 0.00 0.00 80 1015.2
20260905170203 29 71 9.7 14.5 0.00 0.00 0.00 79 1015.3
20260905165204 28 56 6.4 9.7 0.00 0.00 0.00 82 1015.2